Location: Metacom Observatory
(41.7315°N, 71.2698°W)
Time: 14:50:02
(UTC-05:00)

Envisat - Visible Passes

Search period start: 23 January 2018 00:00
Search period end: 02 February 2018 00:00
Orbit: 764 x 766 km, 98.2° (Epoch: 23 January)

Date Brightness Start Highest point End Pass type
(mag) Time Alt. Az. Time Alt. Az. Time Alt. Az.
23 Jan 4.0 18:36:31 29° NE 18:36:31 29° NE 18:39:38 10° N visible
23 Jan 5.3 20:16:42 19° NW 20:16:42 19° NW 20:18:30 10° NW visible
24 Jan 4.5 17:59:05 17° ENE 17:59:05 17° ENE 18:01:53 10° NNE visible
24 Jan 4.2 19:39:16 35° NNW 19:39:16 35° NNW 19:42:17 10° NNW visible
25 Jan 3.5 19:01:50 44° NNE 19:01:50 44° NNE 19:05:32 10° N visible
25 Jan 5.8 20:42:01 13° WNW 20:42:01 13° WNW 20:43:07 10° NW visible
26 Jan 3.9 18:24:23 27° ENE 18:24:23 27° ENE 18:28:17 10° N visible
26 Jan 4.7 20:04:34 29° WNW 20:04:34 29° WNW 20:07:36 10° NNW visible
27 Jan 4.6 17:46:56 13° ENE 17:47:46 13° ENE 17:50:08 10° NNE visible
27 Jan 3.3 19:27:07 57° NNW 19:27:07 57° NNW 19:31:12 10° NNW visible
28 Jan 3.2 18:49:39 46° ENE 18:49:39 46° ENE 18:54:18 10° N visible
28 Jan 5.4 20:29:51 19° WNW 20:29:51 19° WNW 20:32:30 10° NW visible
29 Jan 4.1 18:12:11 21° ENE 18:13:01 22° ENE 18:16:53 10° NNE visible
29 Jan 4.0 19:52:22 43° WNW 19:52:22 43° WNW 19:56:37 10° NNW visible
30 Jan 4.8 17:35:46 10° ENE 17:36:48 11° ENE 17:37:50 10° NE visible
30 Jan 2.8 19:14:54 80° E 19:14:57 80° ENE 19:20:04 10° N visible
30 Jan 5.9 20:55:04 11° W 20:55:04 11° W 20:56:17 10° WNW visible
31 Jan 3.5 18:37:24 34° E 18:38:23 37° ENE 18:43:02 10° N visible
31 Jan 4.9 20:17:35 26° W 20:17:35 26° W 20:21:42 10° NW visible
01 Feb 4.3 17:59:55 14° E 18:02:01 18° ENE 18:05:23 10° NNE visible
01 Feb 3.4 19:40:06 56° SW 19:40:33 58° W 19:45:35 10° NNW visible
